This is the latest recevied weather packets stored in our database for station/object WX8ASH-13. If no packets are shown the sender has not sent any weather packets the latest 1 day(s).
| Time | Temp. | Humidity | Pressure | Rain* | Wind** | Luminosity | Snow |
|---|---|---|---|---|---|---|---|
| 1778070315 | 6.67° C | 99% | 1016.8 hPa | 0 mm | - | - | - |
| 1778068815 | 6.67° C | 99% | 1016.3 hPa | 0 mm | - | - | - |
| 1778067616 | 6.11° C | 99% | 1016.4 hPa | 0 mm | - | - | - |
| 1778067314 | 6.11° C | 99% | 1016.4 hPa | 0 mm | - | - | - |
| 1778066716 | 6.11° C | 99% | 1016.6 hPa | 0 mm | - | - | - |
| 1778066413 | 6.11° C | 99% | 1016.6 hPa | 0 mm | - | - | - |
| 1778065815 | 6.11° C | 99% | 1016.2 hPa | 0 mm | - | - | - |
| 1778065214 | 6.11° C | 99% | 1015.4 hPa | 0 mm | - | - | - |
| 1778064612 | 6.67° C | 99% | 1015.7 hPa | 0 mm | - | - | - |
| 1778063115 | 6.67° C | 99% | 1015.6 hPa | 0 mm | - | - | - |
| 1778062811 | 6.67° C | 99% | 1015.3 hPa | 0.25 mm | - | - | - |
| 1778062511 | 6.67° C | 99% | 1015.4 hPa | 0.25 mm | - | - | - |
| 1778061012 | 6.67° C | 99% | 1014.6 hPa | 0.51 mm | - | - | - |
| 1778060712 | 6.67° C | 99% | 1014.5 hPa | 0.51 mm | - | - | - |
| 1778060110 | 6.67° C | 99% | 1014.5 hPa | 0.76 mm | - | - | - |
| 1778059510 | 6.67° C | 99% | 1014.7 hPa | 0.76 mm | - | - | - |
| 1778059226 | 6.67° C | 99% | 1015 hPa | 0.51 mm | - | - | - |
| 1778058309 | 7.22° C | 99% | 1015.3 hPa | 0.51 mm | - | - | - |
| 1778058011 | 7.22° C | 99% | 1015.3 hPa | 0.76 mm | - | - | - |
| 1778057709 | 6.67° C | 99% | 1015.3 hPa | 0.51 mm | - | - | - |
| 1778057111 | 7.22° C | 99% | 1015.3 hPa | 0.76 mm | - | - | - |
| 1778055911 | 7.22° C | 99% | 1015.1 hPa | 1.02 mm | - | - | - |
| 1778055608 | 7.22° C | 100% | 1015.2 hPa | 1.27 mm | - | - | - |
| 1778055318 | 7.22° C | 100% | 1015 hPa | 1.78 mm | - | - | - |
| 1778055008 | 6.67° C | 100% | 1015 hPa | 2.03 mm | - | - | - |
* Rain latest hour (hover to see other rain measurements)
** Current wind speed in m/s (hover to see current wind gust speed)